Theta_e
314 314 315 316 316 316 316 316 316 316 316 317 317 317 318 317 318 319 320 319 316 311 306 301 297 296 296 296 296 296 296 296 296 296 295 295 295 295 295 295 294 294
314 315 316 316 316 316 316 316 317 317 317 317 317 317 318 318 319 319 320 320 318 313 307 302 298 296 296 296 296 296 295 295 295 295 295 295 295 294 294 294 294 294
315 316 316 316 316 316 316 316 317 317 317 317 317 318 318 318 319 320 320 320 319 314 309 303 299 296 296 296 296 296 296 295 295 295 295 295 295 294 294 294 294 293
316 316 316 317 317 317 317 317 317 317 317 318 318 318 319 319 320 321 321 321 319 316 310 305 300 297 296 296 296 296 295 295 295 295 295 295 295 294 294 294 293 293
316 317 317 317 317 317 317 317 317 317 317 318 319 319 320 321 321 322 322 322 320 316 312 306 301 297 296 296 296 296 295 295 295 295 295 295 294 294 294 293 293 293
317 317 317 317 317 317 317 317 318 318 318 319 320 320 321 321 321 322 322 322 321 317 313 307 302 298 296 296 296 296 295 295 295 295 295 294 294 294 294 293 293 293
317 317 317 317 317 317 318 318 319 319 319 319 320 320 321 321 322 322 322 322 321 318 313 309 304 299 297 296 296 296 295 295 295 295 294 294 294 294 293 293 293 292
317 317 317 317 317 318 318 319 320 320 320 320 320 320 321 322 322 322 322 323 322 319 314 310 305 300 297 296 296 296 296 295 295 295 294 294 294 294 293 293 293 292
318 318 318 318 318 318 319 319 319 320 320 320 320 321 322 322 322 322 322 323 323 320 315 311 307 302 298 296 296 296 296 295 295 295 294 294 294 293 293 293 293 292
319 319 319 319 319 319 319 320 320 320 320 321 321 321 322 322 322 322 323 323 323 320 316 312 308 303 299 297 296 296 296 295 295 295 294 294 294 293 293 293 293 292
320 320 320 320 320 320 320 320 321 321 321 322 322 322 322 323 323 323 323 323 323 321 317 313 309 304 300 297 296 296 295 295 295 295 294 294 293 293 293 293 293 292
321 321 321 321 321 320 320 321 321 321 322 322 322 322 323 323 323 323 323 324 323 321 317 314 310 305 301 297 296 296 296 295 295 295 294 294 294 293 293 293 292 292
321 322 322 321 321 321 321 321 321 322 322 322 322 322 323 323 323 323 323 323 324 322 318 314 311 307 302 298 296 296 296 295 295 295 294 294 294 293 293 292 292 292
322 322 322 322 322 321 321 321 321 321 322 322 322 323 323 323 323 324 324 323 324 323 319 315 312 308 303 299 297 296 296 295 295 295 295 294 294 293 293 292 292 292
322 322 322 322 322 321 321 321 321 321 321 322 323 323 323 323 323 324 324 324 324 323 319 315 313 309 304 300 297 296 296 296 295 295 295 294 294 293 293 292 292 293
321 321 321 322 322 321 321 321 321 321 321 322 323 323 323 323 323 324 325 324 324 323 319 316 313 310 306 301 298 296 296 296 295 295 295 294 294 294 293 292 293 293
321 321 321 321 321 321 321 321 321 321 321 322 323 323 323 323 323 324 324 324 324 323 319 316 314 311 307 303 299 297 296 296 295 295 295 295 294 294 293 293 293 293
321 321 321 321 321 322 322 322 322 321 322 322 323 323 323 323 323 324 324 324 325 323 319 316 314 311 308 304 299 297 296 296 296 295 295 295 294 294 293 293 293 293
320 321 321 321 321 322 322 322 322 322 322 322 323 323 323 323 323 324 324 324 325 323 319 316 314 311 309 305 300 297 296 296 296 295 295 295 294 294 293 293 293 292
320 321 321 321 322 322 322 323 323 323 323 323 323 323 323 323 323 324 324 324 325 323 319 315 313 311 309 306 301 298 296 296 296 296 295 295 295 294 294 293 293 292
321 321 321 321 322 322 322 322 323 323 323 323 323 323 323 323 323 324 324 324 324 323 319 315 313 312 309 306 302 299 297 296 296 296 295 295 295 294 294 293 293 293
321 321 321 321 322 322 322 323 323 323 323 324 324 323 323 323 323 324 324 324 324 323 320 316 313 312 309 306 303 300 297 296 296 296 296 295 295 294 294 294 293 293
322 322 322 322 322 322 323 323 323 323 323 323 324 324 323 323 323 323 324 324 324 324 321 316 313 312 310 307 304 301 298 297 296 296 296 295 295 295 294 294 294 293
323 322 322 323 323 323 323 323 323 323 323 323 323 323 323 323 323 323 323 323 324 324 321 317 313 312 310 308 305 302 299 297 296 296 296 295 295 294 294 294 294 293
324 323 323 323 323 323 323 323 323 323 323 323 323 323 323 323 323 323 323 323 323 323 321 317 314 312 310 308 306 303 300 298 296 296 296 295 295 295 294 294 294 293
324 324 323 323 324 324 324 324 324 324 324 323 323 324 323 323 323 322 323 323 323 323 321 316 314 312 311 309 307 304 301 299 297 297 296 295 295 295 295 295 294 293
Wind_Speed
11 11 10 8 6 4 3 4 7 8 10 12 13 14 15 16 17 18 21 22 21 20 19 18 15 14 13 12 11 11 11 11 11 11 11 10 10 11 12 12 12 13
12 12 11 8 6 4 4 5 7 9 11 12 13 14 14 15 16 17 19 21 20 20 19 18 16 14 13 11 10 10 10 10 10 11 10 10 10 10 11 12 12 13
13 12 10 8 6 5 5 6 7 9 11 12 13 13 13 14 15 16 19 20 20 19 19 18 16 14 13 11 10 10 10 10 10 10 10 10 10 10 10 11 11 12
13 12 10 8 7 6 7 7 8 9 11 12 12 12 12 13 14 16 18 19 20 19 19 18 16 14 12 11 10 10 9 10 10 10 10 10 10 10 10 10 11 11
13 12 10 9 8 8 8 7 8 10 11 12 12 11 11 13 14 16 17 18 19 18 18 18 16 13 12 11 10 10 9 9 9 9 9 9 9 9 9 9 10 10
14 13 11 10 9 9 9 8 9 11 12 12 13 12 12 13 14 16 17 18 18 17 17 17 16 13 12 11 11 10 9 9 9 9 9 9 9 9 9 9 9 10
15 13 11 10 10 10 10 10 11 12 13 14 15 14 14 14 15 16 17 17 18 17 16 17 16 14 12 11 11 10 9 8 8 8 8 9 9 8 8 9 9 10
14 13 12 12 12 11 12 12 13 14 15 16 16 15 15 16 16 16 17 17 17 16 16 16 16 14 12 11 10 10 9 8 8 8 8 9 8 8 8 9 9 10
14 14 14 14 13 13 14 14 15 15 16 17 16 16 17 17 17 17 17 17 17 17 16 16 16 15 12 11 11 10 9 8 8 9 9 9 9 9 9 9 10 10
15 15 15 15 15 15 15 15 15 16 16 17 16 17 18 19 18 17 17 17 17 16 15 15 16 15 13 12 11 10 10 9 9 9 9 9 9 9 9 9 10 10
17 17 17 17 16 16 16 16 16 15 16 17 17 17 19 19 19 17 17 18 17 16 15 15 16 15 13 12 10 10 10 9 9 9 10 10 10 10 10 10 10 11
18 18 18 17 17 16 16 16 16 16 16 17 18 18 19 20 19 17 17 17 17 16 15 15 15 15 13 12 11 10 10 9 9 10 10 10 10 10 11 11 11 11
20 19 18 17 17 17 18 18 18 17 17 17 18 19 20 20 19 17 16 16 17 16 15 14 15 15 14 13 12 11 11 10 10 10 11 11 11 11 11 12 12 12
20 19 18 17 17 18 20 21 20 19 17 17 18 19 20 20 20 19 17 16 17 16 15 14 15 16 14 13 13 12 12 11 11 11 11 11 11 11 11 12 13 13
20 19 18 17 17 18 20 22 21 20 18 18 18 19 21 21 21 21 20 18 17 16 15 14 15 16 15 14 13 12 12 12 12 12 12 12 12 12 12 12 13 13
20 19 19 19 18 19 20 21 22 21 20 19 19 20 22 23 22 22 22 20 18 17 15 14 14 16 16 15 13 13 13 12 12 12 12 12 12 13 12 12 12 13
22 21 20 20 20 20 21 22 22 22 22 21 21 21 23 25 24 23 22 20 18 17 16 14 14 15 16 16 14 13 13 13 13 13 13 13 13 13 13 13 12 13
23 22 22 22 22 22 22 22 23 24 24 24 23 23 24 26 26 24 23 21 19 18 16 14 14 15 16 17 15 14 14 13 13 14 13 13 13 13 14 13 13 13
24 23 23 24 24 24 24 24 24 25 26 25 25 25 26 27 27 26 24 22 20 18 16 14 14 15 16 17 16 15 14 14 14 14 14 14 14 14 14 14 13 13
25 25 25 25 25 25 25 26 26 26 26 27 27 27 27 27 27 27 25 22 20 18 16 15 14 14 16 17 17 16 14 14 14 14 14 14 14 14 14 14 13 13
26 26 26 26 26 26 27 27 27 28 28 29 29 29 29 28 29 28 26 23 20 18 17 16 14 14 15 17 17 16 15 15 15 15 15 14 14 14 14 14 14 14
26 26 26 26 26 27 28 28 29 29 30 31 33 33 32 30 30 30 28 24 21 19 19 17 15 14 15 16 18 18 16 16 15 15 15 15 15 15 15 14 14 14
26 27 27 27 28 29 29 29 30 31 32 34 36 36 33 30 29 29 27 24 22 20 19 17 15 15 15 16 18 18 17 16 16 16 16 15 15 15 15 15 15 15
27 27 27 27 29 30 29 30 31 31 34 36 37 38 36 32 29 28 27 25 23 20 18 18 16 15 16 16 18 19 18 17 16 16 16 16 15 16 16 16 15 15
26 27 26 27 29 29 29 30 31 32 35 36 37 40 39 33 27 26 25 25 23 20 19 19 17 16 16 16 17 19 18 18 17 17 17 16 16 16 17 17 16 16
25 26 28 28 29 29 29 30 31 32 35 36 37 40 39 33 26 24 25 24 21 20 20 20 18 17 17 16 17 19 19 19 19 18 17 16 17 18 18 17 16 16
Wind_Direction
187 189 193 200 208 220 262 299 314 323 326 324 323 326 335 344 351 354 354 350 347 350 355 359 3 6 7 10 21 27 24 22 22 22 22 19 16 13 10 12 12 10
184 191 200 209 216 230 263 286 300 308 311 311 313 321 331 340 347 350 349 348 346 347 352 358 360 3 4 4 12 22 23 22 21 18 18 18 18 14 8 6 6 6
189 198 205 214 221 234 253 268 286 298 301 303 308 317 328 337 343 346 346 345 346 345 349 355 357 358 359 358 3 13 18 19 18 15 13 16 17 14 8 3 1 0
195 203 210 217 226 236 249 264 285 297 299 302 309 317 327 336 340 342 342 342 344 343 345 351 353 353 354 354 357 4 10 12 13 11 9 11 13 12 6 0 357 356
201 208 214 220 230 243 255 269 287 295 298 303 311 318 327 333 335 336 336 338 340 340 341 346 349 350 349 349 351 357 2 4 5 6 3 4 7 5 2 357 354 353
207 212 217 223 234 248 260 273 284 288 292 299 307 313 321 326 327 328 330 332 335 336 336 341 346 347 346 347 347 349 354 356 356 358 356 357 359 358 358 354 352 352
213 218 224 231 240 250 262 272 280 284 289 296 300 305 313 317 317 320 324 327 329 330 331 336 342 345 343 344 342 340 344 348 347 348 348 348 351 352 352 351 350 351
218 225 230 237 243 250 258 268 277 283 288 292 294 298 305 308 308 312 317 321 324 325 327 332 338 341 339 339 337 333 335 339 340 341 340 340 345 347 347 348 348 348
224 229 234 239 245 250 257 266 274 280 284 287 289 293 298 301 303 306 311 315 321 323 323 327 333 336 334 333 332 328 327 332 334 334 334 336 339 341 341 342 344 344
228 232 236 240 245 251 257 264 271 275 278 281 284 288 293 297 299 303 308 312 317 320 318 321 328 330 328 325 325 322 320 324 328 329 330 333 335 335 333 335 339 340
227 231 235 238 243 249 255 260 265 268 272 277 281 287 292 294 295 301 307 310 313 315 313 314 321 325 323 319 318 317 316 318 323 325 327 329 330 328 326 327 333 337
227 231 234 238 242 247 251 255 259 264 271 277 281 285 289 291 292 297 306 308 308 310 309 307 314 320 319 315 314 314 314 317 321 322 322 323 324 323 321 322 328 333
227 230 235 240 245 249 252 254 258 263 270 277 282 284 286 289 292 295 302 305 303 304 304 303 308 315 317 314 312 312 314 316 319 318 317 317 319 321 319 319 322 327
226 230 235 241 247 251 253 254 258 263 269 275 278 282 285 289 293 294 296 298 299 300 299 298 304 311 314 312 309 310 312 314 315 314 312 313 316 318 319 317 318 321
226 231 235 241 246 250 253 255 257 260 266 271 276 282 284 285 289 291 291 292 294 296 295 294 300 308 310 308 306 308 309 309 310 309 308 311 314 316 317 315 313 315
229 233 236 240 244 248 253 255 257 259 262 267 274 281 282 281 283 286 288 290 292 293 290 288 296 304 307 306 303 304 306 306 306 306 306 309 312 314 315 313 310 310
230 233 237 240 243 247 252 256 258 260 261 265 269 274 279 280 281 282 284 287 289 289 286 284 290 300 304 303 301 300 302 302 303 303 305 307 309 312 313 311 308 307
230 233 237 240 243 248 253 257 261 261 261 263 266 270 274 277 279 280 281 283 285 286 283 280 285 295 301 301 299 297 297 299 300 301 302 304 306 309 309 308 307 306
230 234 238 242 245 250 255 258 261 262 262 263 266 269 273 275 277 278 278 279 283 285 283 278 281 291 298 299 297 294 294 296 297 298 299 301 303 304 305 306 305 305
234 237 240 244 247 251 255 258 260 262 263 264 266 267 269 272 274 276 277 278 282 284 280 274 278 288 295 297 295 292 292 293 294 295 296 298 299 301 302 303 303 303
239 241 243 246 249 252 255 257 260 262 263 264 265 265 267 271 275 275 275 275 278 281 277 272 276 285 291 295 294 290 289 290 291 293 294 295 297 297 299 300 301 302
244 245 246 248 250 253 255 257 260 262 264 265 265 266 268 272 274 273 273 274 277 280 278 272 273 281 287 292 292 289 287 288 288 290 292 293 295 295 297 299 299 300
245 247 249 251 254 255 257 260 262 264 266 266 267 268 269 271 274 274 273 274 275 278 277 271 270 277 283 288 290 289 287 286 287 289 290 292 294 294 295 297 298 300
250 252 254 256 258 259 261 264 267 268 269 269 270 271 269 267 270 274 274 272 273 275 275 269 266 272 279 285 289 289 288 286 286 287 289 293 294 293 293 296 297 298
255 254 254 256 260 263 265 269 271 273 273 273 274 274 270 264 265 273 277 274 272 274 272 266 264 269 275 283 288 289 287 286 285 286 290 293 293 291 291 294 296 298
252 252 253 257 262 266 270 273 275 276 277 277 275 274 271 266 264 272 277 275 272 272 270 264 262 267 273 281 287 288 287 286 285 287 291 292 290 289 290 294 297 298